Ogallala, NE

10:05 PM MST on February 19, 2017 (GMT -0700)
Searle

Weather History for KOGA - February, 2014

Change the Weather History Date:

Thursday, February 20, 2014

  Actual Average Record
Temperature  
Mean Temperature 28 °F -  
Max Temperature 36 °F 47 °F 68 °F (1982)
Min Temperature 19 °F 20 °F -8 °F (1959)
Degree Days  
Heating Degree Days 38    
Moisture  
Dew Point 20 °F    
Average Humidity 69    
Maximum Humidity 90    
Minimum Humidity 50    
Precipitation  
Precipitation 0.00 in - - ()
Sea Level Pressure  
Sea Level Pressure 29.80 in    
Wind  
Wind Speed 16 mph (NW)    
Max Wind Speed 31 mph    
Max Gust Speed 47 mph    
Visibility 10 miles    
Events Snow    
Averages and records for this station are not official NWS values.
T = Trace of Precipitation, MM = Missing Value Source: NWS Daily Summary

Daily Weather History Graph

Daily Weather History Graph

Search for Another Location

Airport or City:

Trip Planner

Search our weather history database for the weather conditions in past years. The results will help you decide how hot, cold, wet, or windy it might be!

Date:

Astronomy

Feb. 20, 2014 Rise Set
Actual Time 6:34 AM MST 5:27 PM MST
Civil Twilight 6:06 AM MST 5:55 PM MST
Nautical Twilight 5:34 AM MST 6:27 PM MST
Astronomical Twilight 5:02 AM MST 6:59 PM MST
Moon 11:27 PM MST 9:15 AM MST
Length of Visible Light 11h 48m
Length of Day
10h 52m
Waning Gibbous, 70% of the Moon is Illuminated
Feb 20
Waning Gibbous
Feb 22
Last Quarter
Mar 1
New
Mar 8
First Quarter
Mar 16
Full

Hourly Weather History & Observations

Time (MST) Temp. Windchill Dew Point Humidity Pressure Visibility Wind Dir Wind Speed Gust Speed Precip Events Conditions
12:15 AM 32.0 °F 18.6 °F 29.3 °F 90% 29.68 in 1.5 mi North 25.3 mph 31.1 mph N/A Snow Light Snow
12:35 AM 32.0 °F 19.5 °F 28.4 °F 87% 29.69 in 3.0 mi North 21.9 mph 27.6 mph N/A Snow Light Snow
12:55 AM 32.0 °F 20.8 °F 28.4 °F 87% 29.68 in 5.0 mi North 17.3 mph - N/A Snow Light Snow
1:15 AM 32.0 °F 21.6 °F 27.0 °F 82% 29.68 in 10.0 mi North 15.0 mph - N/A   Overcast
1:35 AM 33.1 °F 21.9 °F 24.8 °F 72% 29.68 in 5.0 mi North 18.4 mph 33.4 mph N/A   Haze
1:55 AM 33.8 °F 23.9 °F 23.5 °F 66% 29.68 in 10.0 mi North 15.0 mph 23.0 mph N/A   Overcast
2:15 AM 32.9 °F 24.7 °F 24.6 °F 72% 29.67 in 10.0 mi NNW 10.4 mph - N/A   Overcast
2:35 AM 32.0 °F 23.0 °F 26.2 °F 79% 29.68 in 10.0 mi NW 11.5 mph - N/A   Overcast
2:55 AM 32.0 °F 21.6 °F 26.4 °F 80% 29.68 in 10.0 mi NW 15.0 mph - N/A   Overcast
3:15 AM 32.0 °F 21.6 °F 26.1 °F 79% 29.69 in 10.0 mi NW 15.0 mph - N/A   Overcast
3:35 AM 32.0 °F 21.6 °F 25.5 °F 77% 29.70 in 10.0 mi NW 15.0 mph - N/A   Overcast
3:55 AM 31.5 °F 21.8 °F 24.8 °F 76% 29.72 in 10.0 mi NW 12.7 mph - N/A   Overcast
4:15 AM 31.1 °F 20.9 °F 23.9 °F 75% 29.73 in 10.0 mi NW 13.8 mph - N/A   Scattered Clouds
4:35 AM 30.9 °F 21.2 °F 22.5 °F 71% 29.74 in 10.0 mi NW 12.7 mph - N/A   Clear
4:55 AM 30.2 °F 19.8 °F 21.9 °F 71% 29.74 in 10.0 mi NW 13.8 mph - N/A   Clear
5:04 AM 30.2 °F 19.3 °F 21.2 °F 69% 29.75 in 10.0 mi NW 15.0 mph - N/A   Clear
5:15 AM 30.0 °F 18.3 °F 21.2 °F 70% 29.75 in 10.0 mi NW 17.3 mph - N/A   Clear
5:35 AM 29.7 °F 19.1 °F 21.0 °F 70% 29.75 in 10.0 mi NW 13.8 mph - N/A   Clear
5:55 AM 29.5 °F 18.4 °F 20.3 °F 69% 29.76 in 10.0 mi NW 15.0 mph - N/A   Clear
6:15 AM 29.7 °F 18.2 °F 18.9 °F 64% 29.77 in 10.0 mi NW 16.1 mph - N/A   Clear
6:35 AM 28.8 °F 17.0 °F 18.0 °F 64% 29.77 in 10.0 mi NW 16.1 mph - N/A   Clear
6:55 AM 27.9 °F 16.8 °F 17.6 °F 65% 29.78 in 10.0 mi NW 13.8 mph - N/A   Clear
7:15 AM 27.9 °F 16.8 °F 17.1 °F 64% 29.79 in 10.0 mi NW 13.8 mph - N/A   Clear
7:35 AM 28.9 °F 16.9 °F 17.6 °F 63% 29.81 in 10.0 mi NW 17.3 mph - N/A   Clear
7:55 AM 30.2 °F 17.8 °F 18.5 °F 62% 29.82 in 10.0 mi NW 19.6 mph - N/A   Clear
8:15 AM 31.1 °F 18.9 °F 19.4 °F 62% 29.82 in 10.0 mi WNW 19.6 mph 25.3 mph N/A   Clear
8:35 AM 32.0 °F 19.8 °F 18.7 °F 58% 29.82 in 10.0 mi NW 20.7 mph 26.5 mph N/A   Clear
8:55 AM 32.0 °F 19.5 °F 18.7 °F 58% 29.82 in 10.0 mi NW 21.9 mph 28.8 mph N/A   Clear
9:15 AM 32.4 °F 19.7 °F 19.0 °F 58% 29.82 in 10.0 mi NW 23.0 mph 28.8 mph N/A   Clear
9:35 AM 32.9 °F 19.6 °F 19.4 °F 58% 29.82 in 10.0 mi NW 26.5 mph 31.1 mph N/A   Clear
9:55 AM 33.1 °F 19.8 °F 20.5 °F 60% 29.82 in 10.0 mi WNW 26.5 mph 32.2 mph N/A   Clear
11:15 AM 35.8 °F 22.8 °F 20.1 °F 53% 29.83 in 10.0 mi NW 29.9 mph 36.8 mph N/A   Scattered Clouds
12:15 PM 33.4 °F 20.1 °F 20.8 °F 60% 29.82 in 10.0 mi NW 27.6 mph 35.7 mph N/A   Overcast
12:55 PM 36.0 °F 22.8 °F 19.0 °F 50% 29.82 in 10.0 mi NW 31.1 mph 43.7 mph N/A   Mostly Cloudy
1:05 PM 35.6 °F 23.0 °F 19.4 °F 52% 29.82 in 10.0 mi NW 27.6 mph 41.4 mph N/A   Scattered Clouds
1:15 PM 36.1 °F 23.5 °F 19.9 °F 52% 29.82 in 10.0 mi NW 28.8 mph 39.1 mph N/A   Scattered Clouds
1:35 PM 35.4 °F 22.3 °F 21.0 °F 56% 29.83 in 10.0 mi WNW 29.9 mph 47.2 mph N/A   Clear
4:15 PM 34.7 °F 23.1 °F 21.0 °F 57% 29.86 in 10.0 mi NW 21.9 mph 28.8 mph N/A   Scattered Clouds
4:35 PM 35.1 °F 24.8 °F 19.0 °F 52% 29.86 in 10.0 mi NW 17.3 mph 27.6 mph N/A   Scattered Clouds
4:55 PM 34.2 °F 24.4 °F 19.6 °F 55% 29.86 in 10.0 mi NW 15.0 mph - N/A   Clear
5:15 PM 33.1 °F 25.5 °F 19.2 °F 57% 29.87 in 10.0 mi NW 9.2 mph - N/A   Clear
5:35 PM 30.9 °F 24.3 °F 19.9 °F 64% 29.87 in 10.0 mi WNW 6.9 mph - N/A   Clear
5:55 PM 29.3 °F 21.5 °F 19.0 °F 66% 29.88 in 10.0 mi NW 8.1 mph - N/A   Clear
6:15 PM 28.0 °F 20.8 °F 18.5 °F 67% 29.87 in 10.0 mi NNW 6.9 mph - N/A   Clear
6:35 PM 26.8 °F 18.5 °F 18.3 °F 70% 29.86 in 10.0 mi NNW 8.1 mph - N/A   Clear
6:55 PM 24.4 °F 15.6 °F 18.0 °F 76% 29.86 in 10.0 mi NNW 8.1 mph - N/A   Clear
7:15 PM 24.6 °F 15.8 °F 17.6 °F 75% 29.86 in 10.0 mi NNW 8.1 mph - N/A   Clear
7:35 PM 24.1 °F 17.0 °F 17.2 °F 75% 29.86 in 10.0 mi NNW 5.8 mph - N/A   Clear
7:55 PM 23.7 °F 17.8 °F 17.1 °F 76% 29.86 in 10.0 mi WSW 4.6 mph - N/A   Clear
8:15 PM 24.1 °F - 16.7 °F 73% 29.86 in 10.0 mi Calm Calm - N/A   Clear
8:35 PM 23.9 °F 15.8 °F 17.4 °F 76% 29.86 in 10.0 mi WSW 6.9 mph - N/A   Clear
8:55 PM 21.6 °F 15.3 °F 16.3 °F 80% 29.86 in 10.0 mi West 4.6 mph - N/A   Clear
9:15 PM 21.7 °F 15.5 °F 15.8 °F 78% 29.86 in 10.0 mi West 4.6 mph - N/A   Clear
9:35 PM 22.3 °F - 15.8 °F 76% 29.86 in 10.0 mi Calm Calm - N/A   Clear
9:55 PM 21.2 °F - 15.8 °F 80% 29.85 in 10.0 mi Calm Calm - N/A   Clear
10:15 PM 20.5 °F - 15.3 °F 80% 29.84 in 10.0 mi Calm Calm - N/A   Clear
10:35 PM 21.0 °F - 15.6 °F 80% 29.84 in 10.0 mi Calm Calm - N/A   Clear
10:55 PM 19.8 °F 14.7 °F 15.1 °F 82% 29.83 in 10.0 mi West 3.5 mph - N/A   Clear
11:15 PM 19.9 °F 12.1 °F 15.1 °F 81% 29.82 in 10.0 mi WSW 5.8 mph - N/A   Clear
11:35 PM 20.3 °F 10.6 °F 14.9 °F 80% 29.82 in 10.0 mi West 8.1 mph - N/A   Clear
11:55 PM 21.0 °F 12.4 °F 15.3 °F 78% 29.81 in 10.0 mi West 6.9 mph - N/A   Clear